Kiruna, Sweden

1:56 AM CEST on May 25, 2017 (GMT +0200)
Kiruna

Weather History for ESNQ - March, 2013

Change the Weather History Date:

Saturday, March 9, 2013

  Actual Average Record
Temperature  
Mean Temperature 3 °F -  
Max Temperature 17 °F - - ()
Min Temperature -11 °F - - ()
Degree Days  
Heating Degree Days 62    
Moisture  
Dew Point -1 °F    
Average Humidity 71    
Maximum Humidity 92    
Minimum Humidity 53    
Precipitation  
Precipitation 0.00 in - - ()
Sea Level Pressure  
Sea Level Pressure 30.05 in    
Wind  
Wind Speed 6 mph ()    
Max Wind Speed 15 mph    
Max Gust Speed -    
Visibility 6.2 miles    
Events      
T = Trace of Precipitation, MM = Missing Value Source: Averaged Metar Reports

Daily Weather History Graph

Daily Weather History Graph

Search for Another Location

Airport or City:

Trip Planner

Search our weather history database for the weather conditions in past years. The results will help you decide how hot, cold, wet, or windy it might be!

Date:

Astronomy

Mar. 09, 2013 Rise Set
Actual Time 6:24 AM CET 5:16 PM CET
Civil Twilight 5:29 AM CET 6:11 PM CET
Nautical Twilight 4:24 AM CET 7:16 PM CET
Astronomical Twilight 3:13 AM CET 8:28 PM CET
Moon 5:34 AM CET (3/9) 2:08 PM CET (3/9)
Length of Visible Light 12h 41m
Length of Day
10h 52m
Waning Crescent, 7% of the Moon is Illuminated
Mar 9
Waning Crescent
Mar 11
New
Mar 19
First Quarter
Mar 27
Full
Apr 3
Last Quarter

Hourly Weather History & Observations

Time (CET) Temp. Windchill Dew Point Humidity Pressure Visibility Wind Dir Wind Speed Gust Speed Precip Events Conditions
12:20 AM 3.2 °F -7.8 °F -0.4 °F 85% 30.06 in 6.2 mi NW 5.8 mph - N/A   Unknown
12:50 AM -5.8 °F - -9.4 °F 84% 30.06 in 6.2 mi South 2.3 mph - N/A   Unknown
1:20 AM -7.6 °F - -11.2 °F 84% 30.06 in 6.2 mi South 2.3 mph - N/A   Unknown
1:50 AM -7.6 °F -16.5 °F -11.2 °F 84% 30.09 in 6.2 mi SSE 3.5 mph - N/A   Unknown
2:20 AM -2.2 °F -12.5 °F -4.0 °F 92% 30.09 in 6.2 mi SSE 4.6 mph - N/A   Unknown
2:50 AM -2.2 °F -14.2 °F -5.8 °F 85% 30.09 in 6.2 mi SSW 5.8 mph - N/A   Unknown
3:20 AM -4.0 °F -17.8 °F -7.6 °F 85% 30.09 in 6.2 mi SSW 6.9 mph - N/A   Unknown
3:50 AM -9.4 °F -20.9 °F -13.0 °F 84% 30.09 in 6.2 mi SSW 4.6 mph - N/A   Unknown
4:20 AM -5.8 °F -18.4 °F -9.4 °F 84% 30.09 in 6.2 mi SSW 5.8 mph - N/A   Unknown
4:50 AM -7.6 °F -18.8 °F -11.2 °F 84% 30.09 in 6.2 mi SW 4.6 mph - N/A   Unknown
5:20 AM -11.2 °F -23.0 °F -16.6 °F 77% 30.09 in 6.2 mi South 4.6 mph - N/A   Unknown
5:50 AM -7.6 °F -20.6 °F -13.0 °F 77% 30.09 in 6.2 mi SSW 5.8 mph - N/A   Unknown
6:20 AM -7.6 °F -20.6 °F -11.2 °F 84% 30.09 in 6.2 mi SSW 5.8 mph - N/A   Unknown
6:50 AM -9.4 °F -24.3 °F -13.0 °F 84% 30.09 in - SSW 6.9 mph - N/A   Clear
7:20 AM -7.6 °F -18.8 °F -13.0 °F 77% 30.09 in - SW 4.6 mph - N/A   Clear
7:50 AM -4.0 °F -12.4 °F -7.6 °F 85% 30.09 in - SSW 3.5 mph - N/A   Clear
8:20 AM -0.4 °F -12.0 °F -2.2 °F 92% 30.09 in - SW 5.8 mph - N/A   Clear
8:50 AM -0.4 °F -12.0 °F -2.2 °F 92% 30.09 in - SSW 5.8 mph - N/A   Clear
9:20 AM 3.2 °F -11.3 °F -0.4 °F 85% 30.09 in - SW 9.2 mph - N/A   Clear
9:50 AM 5.0 °F -9.1 °F -0.4 °F 78% 30.09 in - SSW 9.2 mph - N/A   Clear
10:20 AM 6.8 °F -6.9 °F -0.4 °F 72% 30.09 in - SSW 9.2 mph - N/A   Clear
10:50 AM 8.6 °F 2.0 °F -0.4 °F 67% 30.09 in - SSW 3.5 mph - N/A   Clear
11:20 AM 12.2 °F 2.9 °F 1.4 °F 62% 30.09 in - SW 5.8 mph - N/A   Clear
11:50 AM 15.8 °F 8.6 °F 3.2 °F 58% 30.09 in - WNW 4.6 mph - N/A   Clear
12:20 PM 17.6 °F 9.3 °F 5.0 °F 58% 30.09 in - WNW 5.8 mph - N/A   Clear
12:50 PM 17.6 °F 7.3 °F 5.0 °F 58% 30.06 in - WNW 8.1 mph - N/A   Clear
1:20 PM 17.6 °F 7.3 °F 5.0 °F 58% 30.06 in - WNW 8.1 mph - N/A   Clear
1:50 PM 17.6 °F 6.4 °F 5.0 °F 58% 30.06 in - WNW 9.2 mph - N/A   Clear
2:20 PM 17.6 °F 8.2 °F 5.0 °F 58% 30.06 in - NW 6.9 mph - N/A   Clear
2:50 PM 17.6 °F 5.7 °F 5.0 °F 58% 30.06 in - NNW 10.4 mph - N/A   Clear
3:20 PM 17.6 °F 5.0 °F 5.0 °F 58% 30.06 in - NW 11.5 mph - N/A   Clear
3:50 PM 15.8 °F 5.1 °F 3.2 °F 58% 30.06 in - WNW 8.1 mph - N/A   Clear
4:20 PM 14.0 °F 2.9 °F 5.0 °F 67% 30.04 in - WNW 8.1 mph - N/A   Clear
4:50 PM 14.0 °F 1.2 °F 3.2 °F 62% 30.04 in - WNW 10.4 mph - N/A   Clear
5:20 PM 14.0 °F 2.9 °F 3.2 °F 62% 30.04 in - WNW 8.1 mph - N/A   Clear
5:50 PM 14.0 °F 2.0 °F 3.2 °F 62% 30.04 in - WNW 9.2 mph - N/A   Clear
6:20 PM 12.2 °F 2.9 °F 3.2 °F 67% 30.01 in 6.2 mi WNW 5.8 mph - N/A   Unknown
6:50 PM 10.4 °F 2.2 °F 1.4 °F 67% 30.01 in 6.2 mi West 4.6 mph - N/A   Unknown
7:20 PM 10.4 °F 4.0 °F 1.4 °F 67% 30.01 in 6.2 mi West 3.5 mph - N/A   Unknown
7:50 PM 8.6 °F 0.1 °F 1.4 °F 73% 29.98 in 6.2 mi West 4.6 mph - N/A   Mostly Cloudy
8:20 PM 15.8 °F 2.7 °F 3.2 °F 58% 29.98 in 6.2 mi WNW 11.5 mph - N/A   Mostly Cloudy
8:50 PM 15.8 °F 3.4 °F 3.2 °F 58% 29.98 in 6.2 mi WNW 10.4 mph - N/A   Mostly Cloudy
9:20 PM 15.8 °F 1.4 °F 5.0 °F 62% 29.95 in 6.2 mi WNW 13.8 mph - N/A   Scattered Clouds
9:50 PM 15.8 °F 1.4 °F 5.0 °F 62% 29.95 in 6.2 mi West 13.8 mph - N/A   Unknown
10:20 PM 17.6 °F 5.0 °F 3.2 °F 53% 29.95 in 6.2 mi West 11.5 mph - N/A   Mostly Cloudy
10:50 PM 17.6 °F 3.2 °F 5.0 °F 58% 29.95 in 6.2 mi West 15.0 mph - N/A   Mostly Cloudy
11:20 PM 17.6 °F 6.4 °F 5.0 °F 58% 29.92 in 6.2 mi West 9.2 mph - N/A   Scattered Clouds
11:50 PM 14.0 °F 1.2 °F 5.0 °F 67% 29.92 in 6.2 mi WNW 10.4 mph - N/A   Unknown